Torna al catalogo

SL-14 DEB

AttivoPO
NORAD 47085·DEBRIS·🇷🇺 Russia

Lanciato Aug 15, 1991 da Plesetsk Cosmodrome

Loading…

Prossimi Passaggi (prossime 24 ore)

TLE

AggiornatoSource: Space-Track

Epoca: Sep 14, 2026, 02:19 UTC

1 47085U 91056DK  26257.09674046 -.00000071  00000-0 -16318-3 0  9995
2 47085  82.5610  28.3282 0082797  33.7523 326.8842 13.35166584285593

Traccia SL-14 DEB in tempo reale con AllMySat

Download on the App Store